Time,TemperatureF,DewpointF,PressureIn,WindDirection,WindDirectionDegrees,WindSpeedMPH,WindSpeedGustMPH,Humidity,HourlyPrecipIn,Conditions,Clouds,dailyrainin,SoftwareType,DateUTC
2013-07-05 00:01:00,73.0,60.0,29.89,SSE,156,3.0,9.0,64,0.00,,,0.00,,2013-07-05 05:01:00,
2013-07-05 00:12:00,73.0,60.0,29.89,SSE,153,3.0,8.0,64,0.00,,,0.00,,2013-07-05 05:12:00,
2013-07-05 00:21:00,73.0,61.0,29.89,SSE,148,3.0,8.0,65,0.00,,,0.00,,2013-07-05 05:21:00,
2013-07-05 00:33:00,72.0,60.0,29.89,SSE,150,2.0,7.0,66,0.00,,,0.00,,2013-07-05 05:33:00,
2013-07-05 00:43:00,72.0,60.0,29.89,South,178,3.0,8.0,66,0.00,,,0.00,,2013-07-05 05:43:00,
2013-07-05 00:52:00,72.0,60.0,29.89,SE,142,6.0,8.0,65,0.00,,,0.00,,2013-07-05 05:52:00,
2013-07-05 01:02:00,72.0,60.0,29.89,SSE,153,5.0,10.0,65,0.00,,,0.00,,2013-07-05 06:02:00,
2013-07-05 01:13:00,72.0,60.0,29.89,SSE,157,6.0,9.0,65,0.00,,,0.00,,2013-07-05 06:13:00,
2013-07-05 01:23:00,72.0,60.0,29.89,SSE,163,4.0,9.0,65,0.00,,,0.00,,2013-07-05 06:23:00,
2013-07-05 01:34:00,72.0,60.0,29.89,SSE,159,1.0,7.0,65,0.00,,,0.00,,2013-07-05 06:34:00,
2013-07-05 01:43:00,72.0,60.0,29.89,SSE,165,2.0,5.0,66,0.00,,,0.00,,2013-07-05 06:43:00,
2013-07-05 01:53:00,71.0,59.0,29.90,SSE,152,1.0,6.0,66,0.00,,,0.00,,2013-07-05 06:53:00,
2013-07-05 02:02:00,71.0,59.0,29.90,SSE,163,1.0,6.0,67,0.00,,,0.00,,2013-07-05 07:02:00,
2013-07-05 02:12:00,71.0,60.0,29.89,SSE,167,2.0,7.0,68,0.00,,,0.00,,2013-07-05 07:12:00,
2013-07-05 02:23:00,71.0,60.0,29.90,South,169,1.0,6.0,68,0.00,,,0.00,,2013-07-05 07:23:00,
2013-07-05 02:33:00,70.0,59.0,29.89,SSE,161,5.0,7.0,69,0.00,,,0.00,,2013-07-05 07:33:00,
2013-07-05 02:53:00,71.0,60.0,29.89,SSE,164,3.0,11.0,68,0.00,,,0.00,,2013-07-05 07:53:00,
2013-07-05 03:02:00,71.0,60.0,29.88,SSE,148,4.0,9.0,68,0.00,,,0.00,,2013-07-05 08:02:00,
2013-07-05 03:12:00,71.0,60.0,29.88,SE,146,4.0,9.0,68,0.00,,,0.00,,2013-07-05 08:12:00,
2013-07-05 03:23:00,71.0,60.0,29.89,South,169,1.0,8.0,68,0.00,,,0.00,,2013-07-05 08:23:00,
2013-07-05 03:33:00,71.0,60.0,29.89,South,178,3.0,9.0,68,0.00,,,0.00,,2013-07-05 08:33:00,
2013-07-05 03:43:00,70.0,60.0,29.88,SSE,148,4.0,8.0,70,0.00,,,0.00,,2013-07-05 08:43:00,
2013-07-05 04:06:00,70.0,60.0,29.89,South,188,5.0,9.0,70,0.00,,,0.00,,2013-07-05 09:06:00,
2013-07-05 04:14:00,70.0,60.0,29.89,SSE,163,4.0,8.0,71,0.00,,,0.00,,2013-07-05 09:14:00,
2013-07-05 04:24:00,69.0,59.0,29.89,SSE,159,1.0,8.0,71,0.00,,,0.00,,2013-07-05 09:24:00,
2013-07-05 04:36:00,69.0,60.0,29.89,SSE,162,1.0,8.0,72,0.00,,,0.00,,2013-07-05 09:36:00,
2013-07-05 04:45:00,69.0,60.0,29.88,SSE,158,3.0,7.0,72,0.00,,,0.00,,2013-07-05 09:45:00,
2013-07-05 04:53:00,69.0,60.0,29.89,SSE,167,2.0,7.0,73,0.00,,,0.00,,2013-07-05 09:53:00,
2013-07-05 05:06:00,68.0,59.0,29.89,SSE,159,1.0,6.0,74,0.00,,,0.00,,2013-07-05 10:06:00,
2013-07-05 05:24:00,68.0,60.0,29.88,SE,146,0.0,7.0,76,0.00,,,0.00,,2013-07-05 10:24:00,
2013-07-05 05:35:00,68.0,60.0,29.88,SSE,160,2.0,8.0,76,0.00,,,0.00,,2013-07-05 10:35:00,
2013-07-05 05:46:00,68.0,60.0,29.89,SSE,157,0.0,5.0,76,0.00,,,0.00,,2013-07-05 10:46:00,
2013-07-05 05:55:00,68.0,61.0,29.89,South,170,1.0,6.0,77,0.00,,,0.00,,2013-07-05 10:55:00,
2013-07-05 06:05:00,68.0,61.0,29.89,SSE,161,1.0,6.0,77,0.00,,,0.00,,2013-07-05 11:05:00,
2013-07-05 06:15:00,68.0,61.0,29.89,SSE,150,1.0,5.0,77,0.00,,,0.00,,2013-07-05 11:15:00,
2013-07-05 06:23:00,68.0,61.0,29.89,South,186,0.0,5.0,77,0.00,,,0.00,,2013-07-05 11:23:00,
2013-07-05 06:37:00,67.0,60.0,29.89,SSE,157,2.0,6.0,77,0.00,,,0.00,,2013-07-05 11:37:00,
2013-07-05 06:45:00,68.0,61.0,29.89,SSE,157,3.0,8.0,78,0.00,,,0.00,,2013-07-05 11:45:00,
2013-07-05 06:55:00,68.0,61.0,29.89,SSE,155,1.0,6.0,78,0.00,,,0.00,,2013-07-05 11:55:00,
2013-07-05 07:05:00,68.0,61.0,29.89,SSE,159,1.0,7.0,78,0.00,,,0.00,,2013-07-05 12:05:00,
2013-07-05 07:24:00,68.0,61.0,29.88,SSE,156,1.0,8.0,78,0.00,,,0.00,,2013-07-05 12:24:00,
2013-07-05 07:45:00,69.0,62.0,29.88,SSE,156,4.0,9.0,78,0.00,,,0.00,,2013-07-05 12:45:00,
2013-07-05 07:54:00,70.0,62.0,29.88,SSE,152,3.0,9.0,77,0.00,,,0.00,,2013-07-05 12:54:00,
2013-07-05 08:05:00,70.0,62.0,29.88,SSE,155,5.0,8.0,77,0.00,,,0.00,,2013-07-05 13:05:00,
2013-07-05 08:13:00,71.0,63.0,29.88,SSE,155,3.0,12.0,75,0.00,,,0.00,,2013-07-05 13:13:00,
2013-07-05 08:23:00,73.0,64.0,29.88,SSE,159,5.0,9.0,73,0.00,,,0.00,,2013-07-05 13:23:00,
2013-07-05 08:37:00,74.0,64.0,29.89,South,177,3.0,9.0,72,0.00,,,0.00,,2013-07-05 13:37:00,
2013-07-05 08:46:00,75.0,64.0,29.89,SSW,196,5.0,9.0,69,0.00,,,0.00,,2013-07-05 13:46:00,
2013-07-05 08:55:00,74.0,63.0,29.90,South,190,4.0,13.0,69,0.00,,,0.00,,2013-07-05 13:55:00,
2013-07-05 09:06:00,74.0,64.0,29.90,SSE,167,3.0,10.0,70,0.00,,,0.00,,2013-07-05 14:06:00,
2013-07-05 09:13:00,75.0,64.0,29.90,SSE,166,4.0,8.0,69,0.00,,,0.00,,2013-07-05 14:13:00,
2013-07-05 09:25:00,75.0,65.0,29.90,SSE,160,2.0,10.0,70,0.00,,,0.00,,2013-07-05 14:25:00,
2013-07-05 09:36:00,75.0,64.0,29.90,South,169,2.0,8.0,69,0.00,,,0.00,,2013-07-05 14:36:00,
2013-07-05 09:45:00,74.0,65.0,29.88,South,173,4.0,11.0,73,0.00,,,0.00,,2013-07-05 14:45:00,
2013-07-05 09:54:00,73.0,65.0,29.88,SSE,164,4.0,11.0,76,0.00,,,0.00,,2013-07-05 14:54:00,
2013-07-05 10:05:00,72.0,64.0,29.88,South,178,0.0,7.0,77,0.00,,,0.00,,2013-07-05 15:05:00,
2013-07-05 10:14:00,72.0,64.0,29.88,SSE,159,2.0,7.0,76,0.00,,,0.00,,2013-07-05 15:14:00,
2013-07-05 10:22:00,73.0,65.0,29.88,SSE,163,2.0,7.0,76,0.00,,,0.00,,2013-07-05 15:22:00,
2013-07-05 10:33:00,73.0,65.0,29.88,SSE,158,5.0,11.0,75,0.00,,,0.00,,2013-07-05 15:33:00,
2013-07-05 10:43:00,74.0,66.0,29.88,South,184,4.0,10.0,75,0.00,,,0.00,,2013-07-05 15:43:00,
2013-07-05 10:53:00,75.0,66.0,29.87,SSE,164,5.0,10.0,74,0.00,,,0.00,,2013-07-05 15:53:00,
2013-07-05 11:01:00,76.0,66.0,29.87,South,189,6.0,14.0,72,0.00,,,0.00,,2013-07-05 16:01:00,
2013-07-05 11:11:00,76.0,66.0,29.87,South,185,2.0,11.0,71,0.00,,,0.00,,2013-07-05 16:11:00,
2013-07-05 11:22:00,77.0,66.0,29.88,SSW,192,9.0,12.0,68,0.00,,,0.00,,2013-07-05 16:22:00,
2013-07-05 11:33:00,78.0,67.0,29.88,SSE,158,3.0,14.0,69,0.00,,,0.00,,2013-07-05 16:33:00,
2013-07-05 11:44:00,79.0,68.0,29.88,SSE,163,3.0,12.0,68,0.00,,,0.00,,2013-07-05 16:44:00,
2013-07-05 11:53:00,79.0,67.0,29.88,South,180,2.0,9.0,67,0.00,,,0.00,,2013-07-05 16:53:00,
2013-07-05 12:01:00,79.0,68.0,29.87,SSE,150,4.0,9.0,68,0.00,,,0.00,,2013-07-05 17:01:00,
2013-07-05 12:12:00,80.0,68.0,29.87,SSE,151,6.0,12.0,68,0.00,,,0.00,,2013-07-05 17:12:00,
2013-07-05 12:22:00,80.0,66.0,29.87,SSE,161,5.0,14.0,63,0.00,,,0.00,,2013-07-05 17:22:00,
2013-07-05 12:33:00,80.0,67.0,29.87,SSE,157,4.0,11.0,64,0.00,,,0.00,,2013-07-05 17:33:00,
2013-07-05 12:43:00,82.0,68.0,29.86,SSE,161,4.0,13.0,62,0.00,,,0.00,,2013-07-05 17:43:00,
2013-07-05 12:53:00,81.0,65.0,29.87,SE,136,10.0,16.0,59,0.00,,,0.00,,2013-07-05 17:53:00,
2013-07-05 13:01:00,81.0,66.0,29.86,South,169,5.0,17.0,60,0.00,,,0.00,,2013-07-05 18:01:00,
2013-07-05 13:11:00,81.0,66.0,29.86,SSE,157,6.0,12.0,61,0.00,,,0.00,,2013-07-05 18:11:00,
2013-07-05 13:22:00,83.0,67.0,29.85,South,184,6.0,15.0,58,0.00,,,0.00,,2013-07-05 18:22:00,
2013-07-05 13:33:00,83.0,67.0,29.85,SSE,162,5.0,15.0,58,0.00,,,0.00,,2013-07-05 18:33:00,
2013-07-05 13:43:00,82.0,66.0,29.85,SSE,155,9.0,13.0,59,0.00,,,0.00,,2013-07-05 18:43:00,
2013-07-05 13:53:00,82.0,67.0,29.85,SE,146,5.0,14.0,61,0.00,,,0.00,,2013-07-05 18:53:00,
2013-07-05 14:01:00,82.0,67.0,29.85,SSE,166,5.0,13.0,61,0.00,,,0.00,,2013-07-05 19:01:00,
2013-07-05 14:12:00,82.0,67.0,29.85,SSE,153,7.0,13.0,61,0.00,,,0.00,,2013-07-05 19:12:00,
2013-07-05 14:22:00,84.0,69.0,29.84,SE,140,7.0,10.0,61,0.00,,,0.00,,2013-07-05 19:22:00,
2013-07-05 14:33:00,86.0,69.0,29.84,SSE,152,6.0,13.0,57,0.00,,,0.00,,2013-07-05 19:33:00,
2013-07-05 14:42:00,86.0,68.0,29.84,SSE,161,6.0,11.0,56,0.00,,,0.00,,2013-07-05 19:42:00,
2013-07-05 14:52:00,85.0,68.0,29.84,SSE,153,7.0,14.0,57,0.00,,,0.00,,2013-07-05 19:52:00,
2013-07-05 15:01:00,85.0,69.0,29.84,SSE,162,7.0,12.0,58,0.00,,,0.00,,2013-07-05 20:01:00,
2013-07-05 15:11:00,86.0,69.0,29.84,South,190,8.0,15.0,57,0.00,,,0.00,,2013-07-05 20:11:00,
2013-07-05 15:22:00,86.0,69.0,29.84,SSE,154,10.0,13.0,57,0.00,,,0.00,,2013-07-05 20:22:00,
2013-07-05 15:33:00,87.0,69.0,29.83,SSE,148,8.0,12.0,56,0.00,,,0.00,,2013-07-05 20:33:00,
2013-07-05 15:43:00,88.0,69.0,29.83,South,169,7.0,13.0,53,0.00,,,0.00,,2013-07-05 20:43:00,
2013-07-05 15:53:00,89.0,68.0,29.83,SSE,155,9.0,15.0,50,0.00,,,0.00,,2013-07-05 20:53:00,
2013-07-05 16:01:00,88.0,68.0,29.83,SSE,160,9.0,17.0,51,0.00,,,0.00,,2013-07-05 21:01:00,
2013-07-05 16:11:00,88.0,66.0,29.83,SSE,162,12.0,17.0,49,0.00,,,0.00,,2013-07-05 21:11:00,
2013-07-05 16:21:00,88.0,66.0,29.83,SSE,161,11.0,14.0,49,0.00,,,0.00,,2013-07-05 21:21:00,
2013-07-05 16:34:00,88.0,66.0,29.82,SSE,168,8.0,15.0,48,0.00,,,0.00,,2013-07-05 21:34:00,
2013-07-05 16:42:00,89.0,67.0,29.82,SSE,158,9.0,-999.0,49,-99.99,,,-99.99,,2013-07-05 21:42:00,
2013-07-05 16:53:00,89.0,66.0,29.82,SSE,159,11.0,15.0,47,0.00,,,0.00,,2013-07-05 21:53:00,
2013-07-05 17:01:00,89.0,66.0,29.82,SSE,160,10.0,17.0,47,0.00,,,0.00,,2013-07-05 22:01:00,
2013-07-05 17:11:00,89.0,66.0,29.82,SSE,166,11.0,16.0,47,0.00,,,0.00,,2013-07-05 22:11:00,
2013-07-05 17:21:00,88.0,66.0,29.82,SSE,160,9.0,15.0,48,0.00,,,0.00,,2013-07-05 22:21:00,
2013-07-05 17:33:00,88.0,66.0,29.81,South,182,5.0,14.0,48,0.00,,,0.00,,2013-07-05 22:33:00,
2013-07-05 17:43:00,87.0,65.0,29.81,SE,134,10.0,13.0,48,0.00,,,0.00,,2013-07-05 22:43:00,
2013-07-05 17:53:00,87.0,65.0,29.81,SSE,162,10.0,13.0,49,0.00,,,0.00,,2013-07-05 22:53:00,
2013-07-05 18:02:00,86.0,66.0,29.81,SE,142,7.0,13.0,51,0.00,,,0.00,,2013-07-05 23:02:00,
2013-07-05 18:11:00,86.0,67.0,29.81,SSE,155,6.0,12.0,53,0.00,,,0.00,,2013-07-05 23:11:00,
2013-07-05 18:23:00,87.0,67.0,29.80,SSE,153,8.0,14.0,52,0.00,,,0.00,,2013-07-05 23:23:00,
2013-07-05 18:32:00,87.0,67.0,29.80,SSE,150,4.0,11.0,52,0.00,,,0.00,,2013-07-05 23:32:00,
2013-07-05 18:43:00,87.0,67.0,29.80,SSE,159,7.0,13.0,52,0.00,,,0.00,,2013-07-05 23:43:00,
2013-07-05 18:53:00,87.0,67.0,29.80,SSE,160,10.0,13.0,52,0.00,,,0.00,,2013-07-05 23:53:00,
2013-07-05 19:01:00,87.0,68.0,29.80,SSE,165,6.0,10.0,53,0.00,,,0.00,,2013-07-06 00:01:00,
2013-07-05 19:11:00,87.0,68.0,29.80,SSE,152,9.0,13.0,53,0.00,,,0.00,,2013-07-06 00:11:00,
2013-07-05 19:22:00,87.0,68.0,29.80,SSE,165,3.0,9.0,53,0.00,,,0.00,,2013-07-06 00:22:00,
2013-07-05 19:33:00,86.0,68.0,29.80,SSE,148,7.0,11.0,55,0.00,,,0.00,,2013-07-06 00:33:00,
2013-07-05 19:42:00,85.0,69.0,29.80,SE,131,3.0,10.0,58,0.00,,,0.00,,2013-07-06 00:42:00,
2013-07-05 19:53:00,85.0,70.0,29.80,SSE,149,3.0,11.0,61,0.00,,,0.00,,2013-07-06 00:53:00,
2013-07-05 20:02:00,84.0,69.0,29.80,South,172,2.0,9.0,60,0.00,,,0.00,,2013-07-06 01:02:00,
2013-07-05 20:12:00,84.0,69.0,29.81,SE,145,4.0,8.0,61,0.00,,,0.00,,2013-07-06 01:12:00,
2013-07-05 20:22:00,83.0,69.0,29.81,ESE,121,0.0,8.0,63,0.00,,,0.00,,2013-07-06 01:22:00,
2013-07-05 20:33:00,82.0,69.0,29.81,SE,136,1.0,7.0,65,0.00,,,0.00,,2013-07-06 01:33:00,
2013-07-05 20:42:00,81.0,68.0,29.81,SSE,162,3.0,8.0,65,0.00,,,0.00,,2013-07-06 01:42:00,
2013-07-05 20:53:00,81.0,69.0,29.81,SSE,153,1.0,8.0,66,0.00,,,0.00,,2013-07-06 01:53:00,
2013-07-05 21:02:00,80.0,68.0,29.81,SSE,150,1.0,7.0,67,0.00,,,0.00,,2013-07-06 02:02:00,
2013-07-05 21:11:00,79.0,68.0,29.81,SSE,160,0.0,6.0,68,0.00,,,0.00,,2013-07-06 02:11:00,
2013-07-05 21:22:00,79.0,68.0,29.81,SE,144,2.0,7.0,69,0.00,,,0.00,,2013-07-06 02:22:00,
2013-07-05 21:33:00,78.0,67.0,29.81,SSE,152,0.0,7.0,70,0.00,,,0.00,,2013-07-06 02:33:00,
2013-07-05 21:43:00,78.0,67.0,29.82,SSE,159,0.0,7.0,69,0.00,,,0.00,,2013-07-06 02:43:00,
2013-07-05 21:52:00,78.0,67.0,29.82,SE,138,2.0,9.0,69,0.00,,,0.00,,2013-07-06 02:52:00,
2013-07-05 22:02:00,78.0,67.0,29.82,SSE,153,3.0,12.0,68,0.00,,,0.00,,2013-07-06 03:02:00,
2013-07-05 22:11:00,78.0,67.0,29.82,SE,146,5.0,11.0,68,0.00,,,0.00,,2013-07-06 03:11:00,
2013-07-05 22:22:00,78.0,67.0,29.83,SSE,148,1.0,11.0,68,0.00,,,0.00,,2013-07-06 03:22:00,
2013-07-05 22:34:00,78.0,67.0,29.83,SSE,161,4.0,11.0,68,0.00,,,0.00,,2013-07-06 03:34:00,
2013-07-05 22:43:00,78.0,67.0,29.83,SSE,148,3.0,11.0,68,0.00,,,0.00,,2013-07-06 03:43:00,
2013-07-05 22:52:00,78.0,67.0,29.83,SSE,147,1.0,8.0,68,0.00,,,0.00,,2013-07-06 03:52:00,
2013-07-05 23:02:00,78.0,67.0,29.83,SSE,156,3.0,10.0,68,0.00,,,0.00,,2013-07-06 04:02:00,
2013-07-05 23:12:00,77.0,66.0,29.83,SSE,152,2.0,9.0,69,0.00,,,0.00,,2013-07-06 04:12:00,
2013-07-05 23:22:00,77.0,66.0,29.83,SSE,148,3.0,8.0,68,0.00,,,0.00,,2013-07-06 04:22:00,
2013-07-05 23:33:00,77.0,66.0,29.83,SE,143,1.0,8.0,69,0.00,,,0.00,,2013-07-06 04:33:00,
2013-07-05 23:43:00,76.0,65.0,29.83,SSE,157,1.0,7.0,70,0.00,,,0.00,,2013-07-06 04:43:00,
2013-07-05 23:53:00,76.0,65.0,29.83,SSE,147,0.0,9.0,70,0.00,,,0.00,,2013-07-06 04:53:00,